Regional Weather Roundup
Issued by NWS

Home | Current Version | Previous Version | Graphics & Text | Print | Product List | Glossary On
Versions: 1 2 3 4 5 6 7 8 9 10 11 12 13 14 15 16 17 18 19 20 21 22 23 24 25 26 27 28 29 30 31 32 33 34 35 36 37 38 39 40 41 42 43 44 45 46 47 48 49 50
000
ASUS45 KCYS 252110
RWRWY

WYOMING REGIONAL WEATHER ROUNDUP
NATIONAL WEATHER SERVICE CHEYENNE WY
200 PM MST THU DEC 25 2014

NOTE:  "FAIR" INDICATES FEW OR NO CLOUDS BELOW 12,000 FEET
WITH NO SIGNIFICANT WEATHER AND/OR OBSTRUCTIONS TO VISIBILITY.

WYZ001-252200-
YELLOWSTONE NATIONAL PARK

CITY           SKY/WX    TMP DP  RH WIND       PRES   REMARKS
LK YELLOWSTONE   N/A     16  11  80 CALM      29.68R
W YELLOWSTONE  NOT AVBL

$$
WYZ002>013-054>058-071-098>099-252200-
NORTHERN WYOMING

CITY           SKY/WX    TMP DP  RH WIND       PRES   REMARKS
JACKSON        LGT SNOW  21  18  86 N25G32    29.60R WCI   4
CODY           CLOUDY    21  18  86 N14       29.79R WCI   8
GREYBULL       CLOUDY    27  19  72 NW26      29.75R WCI  12
WORLAND        SNOW      24  21  88 NW16      29.75R VSB 1/2 WCI  11
SHERIDAN       LGT SNOW  24  20  84 NW17      29.85R FOG     WCI  11
BUFFALO        LGT SNOW  21  19  92 N23G32    29.77R FOG     WCI   5
GILLETTE       LGT SNOW  22  19  89 N17       29.78R VSB 3/4 WCI   8
HULETT           N/A    N/A N/A N/A MISG        N/A
NEWCASTLE      FAIR      27  19  74 N17G23    29.70R WCI  14

$$
WYZ014>020-022>026-101>103-252200-
CENTRAL WYOMING

CITY           SKY/WX    TMP DP  RH WIND       PRES   REMARKS
BIG PINEY      HVY SNOW  22  20  92 SW6       29.55R VSB 1/4 WCI  14
PINEDALE       CLOUDY    27  10  50 NE13      29.55R WCI  16
DUBOIS         NOT AVBL
LANDER         SNOW      23  20  88 NE9       29.69R VSB 1/2 WCI  13
RIVERTON       CLOUDY    23  17  78 N23       29.69R WCI   7
CASPER         LGT SNOW  24  19  81 NE18G32   29.68R WCI  10
DOUGLAS        LGT SNOW  26  22  84 N17       29.68R FOG     WCI  13

$$
WYZ021-027>030-104>119-252200-
SOUTHERN WYOMING

CITY           SKY/WX    TMP DP  RH WIND       PRES   REMARKS
EVANSTON       SNOW      21  19  92 SW14      29.55R VSB 1/2 WCI   8
FORT BRIDGER   LGT SNOW  24  22  93 W17       29.56R VSB 3/4 WCI  10
ROCK SPRINGS   LGT SNOW  19  15  84 NE29G41   29.55R VSB 3/4 WCI   0
DIXON          LGT SNOW  30  27  88 NW10      29.51S VSB 3/4 WCI  21
RAWLINS        SNOW      20  16  84 NE17      29.55R VSB 1/2 WCI   5
SARATOGA       LGT SNOW  25  21  86 N10       29.51S WCI  15
LARAMIE        HVY SNOW  24  21  88 E16       29.47R VSB 1/4 WCI  11
CHEYENNE       LGT SNOW  24  20  84 NE17G24   29.53R VSB 1   WCI  11
TORRINGTON     SNOW      28  26  92 NE14      29.63R VSB 1/2 WCI  17
PINE BLUFFS    LGT SNOW  28  27  93 N15G21    29.56R WCI  17

$$


USA.gov is the U.S. government's official web portal to all federal, state and local government web resources and services.